Location: Newark
(7.0858°N, 171.3717°E)
Time: 02:20:20
(UTC+00:00)

Transit 4A - Pass Details

Date: 03 December 2020
Orbit: 864 x 980 km, 66.8° (Epoch: 20 January)

Event Time Altitude Azimuth Distance (km) Brightness Sun altitude
Rises 18:33:11 0° 213° (SSW) 3,549 10.8 -0.7°
Reaches altitude 10° 18:35:46 10° 219° (SW) 2,624 10.1 -0.1°
Maximum altitude 18:41:35 46° 291° (WNW) 1,253 8.3 1.2°
Drops below altitude 10° 18:47:34 10° 3° (N) 2,691 10.1 2.6°
Sets 18:50:16 0° 9° (N) 3,649 10.9 3.2°
